TimeCDT,TemperatureF,Dew PointF,Humidity,Sea Level PressureIn,VisibilityMPH,Wind Direction,Wind SpeedMPH,Gust SpeedMPH,PrecipitationIn,Events,Conditions,WindDirDegrees,DateUTC
12:15 AM,58.5,55.9,91,29.84,10.0,Calm,Calm,-,N/A,,Clear,0,2013-09-02 05:15:00
12:55 AM,58.6,56.8,94,29.84,10.0,Calm,Calm,-,N/A,,Clear,0,2013-09-02 05:55:00
1:15 AM,58.3,55.9,92,29.85,10.0,Calm,Calm,-,N/A,,Clear,0,2013-09-02 06:15:00
1:35 AM,58.1,56.3,94,29.85,10.0,Calm,Calm,-,N/A,,Clear,0,2013-09-02 06:35:00
2:15 AM,60.4,57.7,91,29.86,10.0,Calm,Calm,-,N/A,,Clear,0,2013-09-02 07:15:00
2:55 AM,61.0,57.2,87,29.86,10.0,NW,4.6,-,N/A,,Clear,320,2013-09-02 07:55:00
3:35 AM,60.4,57.4,90,29.87,10.0,NW,5.8,-,N/A,,Clear,320,2013-09-02 08:35:00
3:55 AM,59.9,57.6,92,29.87,10.0,NNW,5.8,-,N/A,,Scattered Clouds,330,2013-09-02 08:55:00
4:15 AM,59.9,57.7,93,29.88,10.0,NW,4.6,-,N/A,,Clear,320,2013-09-02 09:15:00
5:55 AM,61.0,58.3,91,29.90,10.0,North,5.8,-,N/A,,Mostly Cloudy,350,2013-09-02 10:55:00
6:55 AM,60.8,57.4,88,29.92,10.0,NNW,8.1,-,N/A,,Clear,340,2013-09-02 11:55:00
7:15 AM,61.2,57.4,87,29.92,10.0,NNW,8.1,-,N/A,,Clear,340,2013-09-02 12:15:00
7:35 AM,61.9,57.6,86,29.93,10.0,NNW,9.2,-,N/A,,Clear,340,2013-09-02 12:35:00
7:55 AM,62.1,57.6,85,29.94,10.0,NNW,6.9,-,N/A,,Clear,330,2013-09-02 12:55:00
8:15 AM,62.8,58.3,85,29.94,10.0,North,8.1,-,N/A,,Mostly Cloudy,350,2013-09-02 13:15:00
8:35 AM,63.1,57.6,82,29.95,10.0,North,10.4,-,N/A,,Overcast,350,2013-09-02 13:35:00
8:55 AM,64.4,58.1,80,29.95,10.0,NNW,8.1,-,N/A,,Overcast,330,2013-09-02 13:55:00
9:35 AM,64.0,57.9,80,29.96,10.0,North,3.5,-,N/A,,Overcast,360,2013-09-02 14:35:00
9:55 AM,64.4,57.9,79,29.96,10.0,North,6.9,-,N/A,,Overcast,360,2013-09-02 14:55:00
10:55 AM,66.6,57.0,71,29.98,10.0,NW,8.1,-,N/A,,Overcast,320,2013-09-02 15:55:00
11:15 AM,67.3,55.6,66,29.98,10.0,NW,10.4,-,N/A,,Overcast,320,2013-09-02 16:15:00
11:35 AM,67.5,56.7,68,29.98,10.0,North,9.2,-,N/A,,Overcast,350,2013-09-02 16:35:00
11:55 AM,68.0,56.3,66,29.98,10.0,NNW,9.2,-,N/A,,Overcast,330,2013-09-02 16:55:00
12:15 PM,67.5,58.1,72,29.99,10.0,NW,10.4,16.1,N/A,,Overcast,320,2013-09-02 17:15:00
12:35 PM,67.8,55.4,64,29.98,10.0,North,12.7,18.4,N/A,,Overcast,350,2013-09-02 17:35:00
12:55 PM,68.4,56.3,65,29.98,10.0,North,6.9,-,N/A,,Overcast,350,2013-09-02 17:55:00
1:15 PM,67.1,56.1,68,29.98,10.0,NNW,10.4,-,N/A,,Overcast,330,2013-09-02 18:15:00
1:35 PM,66.2,56.3,70,29.99,10.0,NW,10.4,-,N/A,,Overcast,310,2013-09-02 18:35:00
1:55 PM,65.7,55.2,69,29.98,10.0,NNW,9.2,-,N/A,,Overcast,340,2013-09-02 18:55:00
2:15 PM,68.0,55.2,64,29.98,10.0,WNW,8.1,-,N/A,,Overcast,290,2013-09-02 19:15:00
2:35 PM,68.0,54.3,62,29.97,10.0,NNW,8.1,-,N/A,,Overcast,330,2013-09-02 19:35:00
2:55 PM,69.1,54.5,60,29.97,10.0,North,8.1,-,N/A,,Overcast,350,2013-09-02 19:55:00
3:15 PM,67.6,54.3,62,29.97,10.0,NW,6.9,-,N/A,,Overcast,320,2013-09-02 20:15:00
3:35 PM,68.2,54.7,62,29.97,10.0,North,9.2,-,N/A,,Overcast,350,2013-09-02 20:35:00
3:55 PM,68.7,54.0,59,29.97,10.0,NNW,9.2,-,N/A,,Mostly Cloudy,330,2013-09-02 20:55:00
4:15 PM,68.0,53.4,60,29.97,10.0,NNW,6.9,-,N/A,,Mostly Cloudy,330,2013-09-02 21:15:00
4:35 PM,68.7,53.1,57,29.96,10.0,NNW,8.1,-,N/A,,Scattered Clouds,340,2013-09-02 21:35:00
4:55 PM,68.9,52.3,55,29.96,10.0,North,6.9,-,N/A,,Scattered Clouds,350,2013-09-02 21:55:00
5:15 PM,68.4,52.3,57,29.96,10.0,NW,9.2,-,N/A,,Scattered Clouds,320,2013-09-02 22:15:00
5:35 PM,68.4,53.2,58,29.96,10.0,North,8.1,-,N/A,,Scattered Clouds,10,2013-09-02 22:35:00
6:15 PM,67.1,52.3,59,29.98,10.0,NNW,8.1,-,N/A,,Scattered Clouds,340,2013-09-02 23:15:00
6:35 PM,65.5,52.7,63,29.98,10.0,North,4.6,-,N/A,,Clear,360,2013-09-02 23:35:00
6:55 PM,64.8,52.5,64,29.98,10.0,North,5.8,-,N/A,,Scattered Clouds,360,2013-09-02 23:55:00
7:15 PM,63.7,52.9,68,29.98,10.0,North,3.5,-,N/A,,Scattered Clouds,350,2013-09-03 00:15:00
7:35 PM,62.6,52.7,70,29.98,10.0,North,3.5,-,N/A,,Scattered Clouds,360,2013-09-03 00:35:00
8:15 PM,62.1,52.7,71,29.99,10.0,North,3.5,-,N/A,,Scattered Clouds,360,2013-09-03 01:15:00
8:35 PM,60.8,52.3,74,30.00,10.0,North,4.6,-,N/A,,Clear,360,2013-09-03 01:35:00
8:55 PM,60.1,52.2,75,30.00,10.0,North,4.6,-,N/A,,Clear,10,2013-09-03 01:55:00
9:35 PM,58.8,52.0,78,30.01,10.0,North,3.5,-,N/A,,Clear,10,2013-09-03 02:35:00
9:55 PM,57.6,51.8,81,30.01,10.0,North,4.6,-,N/A,,Clear,10,2013-09-03 02:55:00
10:15 PM,56.8,51.8,83,30.01,10.0,NNE,4.6,-,N/A,,Clear,20,2013-09-03 03:15:00
10:35 PM,56.7,51.1,82,30.01,10.0,North,4.6,-,N/A,,Clear,10,2013-09-03 03:35:00
10:55 PM,55.6,50.7,84,30.01,10.0,Calm,Calm,-,N/A,,Clear,0,2013-09-03 03:55:00
11:15 PM,55.0,50.4,84,30.01,10.0,Calm,Calm,-,N/A,,Clear,0,2013-09-03 04:15:00
11:35 PM,54.3,50.2,86,30.01,10.0,Calm,Calm,-,N/A,,Clear,0,2013-09-03 04:35:00
11:55 PM,53.8,49.6,86,30.01,10.0,Calm,Calm,-,N/A,,Clear,0,2013-09-03 04:55:00